Fort Yukon, AK

10:59 AM AKDT on March 30, 2017 (GMT -0800)
Fort Yukon

Weather History for PFYU - January, 2014

Change the Weather History Date:

Saturday, January 4, 2014

  Actual Average Record
Temperature  
Mean Temperature -9 °F -  
Max Temperature 5 °F -11 °F 26 °F (2017)
Min Temperature -18 °F -23 °F -63 °F (1997)
Degree Days  
Heating Degree Days 74    
Moisture  
Dew Point -18 °F    
Average Humidity 68    
Maximum Humidity 84    
Minimum Humidity 45    
Precipitation  
Precipitation 0.00 in - - ()
Sea Level Pressure  
Sea Level Pressure 30.44 in    
Wind  
Wind Speed 2 mph (NE)    
Max Wind Speed 16 mph    
Max Gust Speed 25 mph    
Visibility 10 miles    
Events      
Averages and records for this station are not official NWS values.
T = Trace of Precipitation, MM = Missing Value Source: NWS Daily Summary

Daily Weather History Graph

Daily Weather History Graph

Search for Another Location

Airport or City:

Trip Planner

Search our weather history database for the weather conditions in past years. The results will help you decide how hot, cold, wet, or windy it might be!

Date:

Astronomy

Jan. 04, 2014 Rise Set
Actual Time 11:15 AM AKST 2:16 PM AKST
Civil Twilight 9:37 AM AKST 3:55 PM AKST
Nautical Twilight 8:19 AM AKST 5:13 PM AKST
Astronomical Twilight 7:14 AM AKST 6:18 PM AKST
Moon 10:56 AM AKST (1/4) 9:29 PM AKST (1/4)
Length of Visible Light 6h 18m
Length of Day
3h 00m
Waxing Crescent, 16% of the Moon is Illuminated
Jan 4
Waxing Crescent
Jan 7
First Quarter
Jan 15
Full
Jan 23
Last Quarter
Jan 30
New

Hourly Weather History & Observations

Time (AKST) Temp. Windchill Dew Point Humidity Pressure Visibility Wind Dir Wind Speed Gust Speed Precip Events Conditions
12:16 AM -4.0 °F - -11.2 °F 71% 30.49 in 10.0 mi Calm Calm - N/A   Overcast
12:36 AM -4.0 °F -14.6 °F -9.4 °F 78% 30.49 in 10.0 mi ENE 4.6 mph - N/A   Overcast
12:56 AM -4.0 °F -16.3 °F - N/A% 30.49 in 10.0 mi ENE 5.8 mph - N/A   Overcast
1:36 AM -4.0 °F - -11.2 °F 71% 30.50 in 10.0 mi Calm Calm - N/A   Overcast
2:36 AM -7.6 °F - -13.0 °F 77% 30.52 in 10.0 mi Calm Calm - N/A   Clear
3:16 AM -9.4 °F - -14.8 °F 77% 30.52 in 10.0 mi Calm Calm - N/A   Mostly Cloudy
3:56 AM -7.6 °F - -11.2 °F 84% 30.51 in 10.0 mi Calm Calm - N/A   Mostly Cloudy
4:16 AM -5.8 °F - -11.2 °F 77% 30.51 in 10.0 mi Calm Calm - N/A   Overcast
4:36 AM -5.8 °F - -14.8 °F 65% 30.51 in 10.0 mi Calm Calm - N/A   Overcast
5:16 AM -4.0 °F -14.6 °F -11.2 °F 71% 30.51 in 10.0 mi NE 4.6 mph - N/A   Overcast
6:36 AM -2.2 °F - -13.0 °F 60% 30.50 in 10.0 mi Calm Calm - N/A   Overcast
8:36 AM -7.6 °F -16.5 °F -14.8 °F 71% 30.49 in 10.0 mi NE 3.5 mph - N/A   Clear
9:16 AM -9.4 °F -18.6 °F -18.4 °F 65% 30.49 in 10.0 mi NE 3.5 mph - N/A   Clear
9:36 AM -9.4 °F - -16.6 °F 71% 30.49 in 10.0 mi Calm Calm - N/A   Clear
9:56 AM -11.2 °F - -20.2 °F 64% 30.49 in 10.0 mi Calm Calm - N/A   Clear
10:36 AM -14.8 °F - -20.2 °F 77% 30.48 in 10.0 mi Calm Calm - N/A   Scattered Clouds
11:16 AM -16.6 °F - -23.8 °F 70% 30.49 in 10.0 mi Calm Calm - N/A   Partly Cloudy
12:16 PM -18.4 °F - -29.2 °F 58% 30.47 in 10.0 mi Calm Calm - N/A   Partly Cloudy
12:36 PM -16.6 °F - -22.0 °F 76% 30.46 in 10.0 mi Calm Calm - N/A   Partly Cloudy
1:16 PM -16.6 °F -26.8 °F -27.4 °F 58% 30.45 in 10.0 mi ENE 3.5 mph - N/A   Partly Cloudy
1:36 PM -14.8 °F -24.8 °F -18.4 °F 84% 30.43 in 10.0 mi ENE 3.5 mph - N/A   Partly Cloudy
2:36 PM -14.8 °F - -23.8 °F 64% 30.43 in 10.0 mi Calm Calm - N/A   Partly Cloudy
3:16 PM -18.4 °F -28.9 °F -27.4 °F 63% 30.39 in 10.0 mi NNE 3.5 mph - N/A   Clear
3:56 PM -18.4 °F - -29.2 °F 58% 30.38 in 10.0 mi Calm Calm - N/A   Clear
4:56 PM -18.4 °F - - N/A% 30.34 in 10.0 mi Calm Calm - N/A   Clear
7:56 PM -11.2 °F -23.0 °F -27.4 °F 45% 30.23 in 10.0 mi ENE 4.6 mph - N/A   Clear
9:16 PM -0.4 °F -15.7 °F -9.4 °F 66% 30.17 in 10.0 mi ENE 9.2 mph - N/A   Mostly Cloudy
11:36 PM 5.0 °F -13.6 °F -7.6 °F 56% 30.11 in 10.0 mi NE 16.1 mph 25.3 mph N/A   Overcast